• In Uzbekistan
  • List of Countries
  • For 7 days
  • Water Temperature
  • Satellite Maps
  • Weather Map
  • Weather Widgets
  • user-avatar
    Login

    Hourly Weather Pecs

    Today, 22 October, Sunday

    Time Temperature Precipitation Wind Pressure Humidity
    00:00 +12°C° 0 mm 0 mps 744 mmHg 67%
    01:00 +13°C° 0 mm 1 mps 744 mmHg 70%
    02:00 +12°C° 0 mm 1 mps 744 mmHg 72%
    03:00 +12°C° 0 mm 1 mps 743 mmHg 75%
    04:00 +12°C° 0 mm 1 mps 743 mmHg 77%
    05:00 +12°C° 0 mm 1 mps 743 mmHg 78%
    06:00 +12°C° 0 mm 1 mps 743 mmHg 79%
    07:00 +12°C° 0 mm 1 mps 743 mmHg 74%
    08:00 +14°C° 0 mm 1 mps 743 mmHg 69%
    09:00 +15°C° 0 mm 1 mps 743 mmHg 64%
    10:00 +18°C° 0 mm 1 mps 743 mmHg 59%
    11:00 +19°C° 0 mm 1 mps 743 mmHg 56%
    12:00 +20°C° 0 mm 1 mps 742 mmHg 54%
    13:00 +18°C° 0 mm 2 mps 742 mmHg 58%
    14:00 +17°C° 1.5 mm 3 mps 741 mmHg 64%
    15:00 +16°C° 1.5 mm 3 mps 741 mmHg 70%
    16:00 +14°C° 1.5 mm 4 mps 741 mmHg 76%
    17:00 +13°C° 0.9 mm 5 mps 740 mmHg 78%
    18:00 +12°C° 0.9 mm 5 mps 740 mmHg 81%
    19:00 +10°C° 0.9 mm 6 mps 740 mmHg 84%
    20:00 +9°C° 1.6 mm 6 mps 740 mmHg 84%
    21:00 +9°C° 1.6 mm 7 mps 739 mmHg 85%
    22:00 +9°C° 1.6 mm 7 mps 739 mmHg 85%
    23:00 +8°C° 4 mm 7 mps 739 mmHg 86%

    Tomorrow, 23 October, Monday

    Time Temperature Precipitation Wind Pressure Humidity
    00:00 +7°C° 4 mm 8 mps 738 mmHg 87%
    01:00 +7°C° 4 mm 8 mps 738 mmHg 88%
    02:00 +7°C° 2.4 mm 8 mps 738 mmHg 87%
    03:00 +7°C° 2.4 mm 8 mps 737 mmHg 86%
    04:00 +7°C° 2.4 mm 8 mps 737 mmHg 84%
    05:00 +6°C° 0.6 mm 8 mps 737 mmHg 83%
    06:00 +6°C° 0.6 mm 8 mps 737 mmHg 82%
    07:00 +6°C° 0.6 mm 8 mps 737 mmHg 81%
    08:00 +6°C° 0.8 mm 8 mps 737 mmHg 81%
    09:00 +6°C° 0.8 mm 8 mps 738 mmHg 81%
    10:00 +6°C° 0.8 mm 8 mps 738 mmHg 81%
    11:00 +7°C° 0.5 mm 8 mps 738 mmHg 79%
    12:00 +7°C° 0.5 mm 8 mps 738 mmHg 78%
    13:00 +7°C° 0.5 mm 8 mps 738 mmHg 77%
    14:00 +7°C° 0.4 mm 8 mps 738 mmHg 77%
    15:00 +7°C° 0.4 mm 8 mps 739 mmHg 78%
    16:00 +7°C° 0.4 mm 8 mps 739 mmHg 79%
    17:00 +7°C° 0.3 mm 8 mps 739 mmHg 79%
    18:00 +7°C° 0.3 mm 8 mps 739 mmHg 79%
    19:00 +7°C° 0.3 mm 8 mps 739 mmHg 79%
    20:00 +7°C° 0.2 mm 8 mps 740 mmHg 78%
    21:00 +7°C° 0.2 mm 9 mps 740 mmHg 78%
    22:00 +7°C° 0.2 mm 9 mps 740 mmHg 77%
    23:00 +7°C° 0.1 mm 9 mps 741 mmHg 77%

    Day after tomorrow, 24 October, Tuesday

    Time Temperature Precipitation Wind Pressure Humidity
    00:00 +7°C° 0.1 mm 9 mps 741 mmHg 77%
    01:00 +7°C° 0.1 mm 9 mps 741 mmHg 77%
    02:00 +7°C° 0.1 mm 9 mps 741 mmHg 77%
    03:00 +7°C° 0.1 mm 9 mps 742 mmHg 77%
    04:00 +7°C° 0.1 mm 9 mps 742 mmHg 77%
    05:00 +7°C° 0 mm 9 mps 742 mmHg 78%
    06:00 +7°C° 0 mm 9 mps 743 mmHg 78%
    07:00 +7°C° 0 mm 9 mps 743 mmHg 78%
    08:00 +8°C° 0 mm 9 mps 744 mmHg 73%
    09:00 +10°C° 0 mm 9 mps 744 mmHg 67%
    10:00 +11°C° 0 mm 10 mps 744 mmHg 62%
    11:00 +12°C° 0 mm 9 mps 744 mmHg 60%
    12:00 +13°C° 0 mm 9 mps 744 mmHg 57%
    13:00 +13°C° 0 mm 9 mps 744 mmHg 55%
    14:00 +13°C° 0 mm 8 mps 745 mmHg 56%
    15:00 +12°C° 0 mm 8 mps 745 mmHg 58%
    16:00 +12°C° 0 mm 7 mps 745 mmHg 59%
    17:00 +11°C° 0 mm 7 mps 746 mmHg 61%
    18:00 +10°C° 0 mm 7 mps 746 mmHg 64%
    19:00 +9°C° 0 mm 6 mps 747 mmHg 67%
    20:00 +9°C° 0 mm 6 mps 747 mmHg 68%
    21:00 +8°C° 0 mm 5 mps 748 mmHg 70%
    22:00 +8°C° 0 mm 4 mps 748 mmHg 72%
    23:00 +7°C° 0 mm 4 mps 749 mmHg 73%

    25 October, Wednesday

    Time Temperature Precipitation Wind Pressure Humidity
    00:00 +7°C° 0 mm 4 mps 749 mmHg 75%
    01:00 +7°C° 0 mm 3 mps 749 mmHg 76%
    02:00 +7°C° 0 mm 3 mps 749 mmHg 78%
    03:00 +5°C° 0 mm 3 mps 749 mmHg 79%
    04:00 +6°C° 0 mm 2 mps 749 mmHg 81%
    05:00 +6°C° 0 mm 2 mps 750 mmHg 81%
    06:00 +6°C° 0 mm 2 mps 750 mmHg 81%
    07:00 +6°C° 0 mm 2 mps 750 mmHg 81%
    08:00 +8°C° 0 mm 2 mps 750 mmHg 73%
    09:00 +9°C° 0 mm 2 mps 751 mmHg 65%
    10:00 +12°C° 0 mm 2 mps 751 mmHg 56%
    11:00 +13°C° 0 mm 2 mps 751 mmHg 53%
    12:00 +15°C° 0 mm 2 mps 751 mmHg 49%
    13:00 +16°C° 0 mm 2 mps 751 mmHg 46%
    14:00 +15°C° 0 mm 1 mps 751 mmHg 49%
    15:00 +15°C° 0 mm 1 mps 751 mmHg 52%
    16:00 +15°C° 0 mm 1 mps 750 mmHg 56%
    17:00 +14°C° 0 mm 1 mps 751 mmHg 61%
    18:00 +13°C° 0 mm 1 mps 751 mmHg 66%
    19:00 +12°C° 0 mm 1 mps 751 mmHg 71%
    20:00 +12°C° 0 mm 1 mps 751 mmHg 75%
    21:00 +11°C° 0 mm 1 mps 751 mmHg 78%
    22:00 +10°C° 0 mm 2 mps 751 mmHg 81%
    23:00 +10°C° 0 mm 2 mps 751 mmHg 83%

    26 October, Thursday

    Time Temperature Precipitation Wind Pressure Humidity
    00:00 +9°C° 0 mm 2 mps 751 mmHg 85%
    01:00 +9°C° 0 mm 2 mps 751 mmHg 87%
    02:00 +9°C° 0 mm 2 mps 751 mmHg 87%
    03:00 +9°C° 0 mm 2 mps 751 mmHg 87%
    04:00 +9°C° 0 mm 2 mps 751 mmHg 88%
    05:00 +9°C° 0 mm 2 mps 751 mmHg 87%
    06:00 +9°C° 0 mm 2 mps 751 mmHg 87%
    07:00 +9°C° 0 mm 2 mps 751 mmHg 86%
    08:00 +12°C° 0 mm 2 mps 751 mmHg 78%
    09:00 +14°C° 0 mm 2 mps 751 mmHg 70%
    10:00 +16°C° 0 mm 2 mps 751 mmHg 62%
    11:00 +17°C° 0 mm 2 mps 751 mmHg 59%
    12:00 +18°C° 0 mm 2 mps 750 mmHg 56%
    13:00 +19°C° 0 mm 2 mps 750 mmHg 52%
    14:00 +19°C° 0 mm 2 mps 749 mmHg 55%
    15:00 +18°C° 0 mm 2 mps 749 mmHg 58%
    16:00 +18°C° 0 mm 2 mps 748 mmHg 60%
    17:00 +17°C° 0 mm 2 mps 748 mmHg 63%
    18:00 +15°C° 0 mm 2 mps 748 mmHg 66%
    19:00 +14°C° 0 mm 2 mps 748 mmHg 68%
    20:00 +14°C° 0 mm 2 mps 748 mmHg 69%
    21:00 +13°C° 0 mm 2 mps 747 mmHg 69%
    22:00 +13°C° 0 mm 2 mps 747 mmHg 69%
    23:00 +13°C° 0 mm 2 mps 747 mmHg 69%

    27 October, Friday

    Time Temperature Precipitation Wind Pressure Humidity
    00:00 +12°C° 0 mm 2 mps 747 mmHg 69%
    01:00 +12°C° 0 mm 2 mps 746 mmHg 70%
    02:00 +12°C° 0 mm 2 mps 746 mmHg 71%
    03:00 +12°C° 0 mm 1 mps 745 mmHg 72%
    04:00 +11°C° 0 mm 1 mps 745 mmHg 74%
    05:00 +11°C° 0 mm 1 mps 744 mmHg 75%
    06:00 +11°C° 0 mm 1 mps 744 mmHg 76%
    07:00 +11°C° 0 mm 1 mps 744 mmHg 77%
    08:00 +13°C° 0 mm 2 mps 743 mmHg 71%
    09:00 +15°C° 0 mm 2 mps 743 mmHg 64%
    10:00 +17°C° 0 mm 3 mps 743 mmHg 57%
    11:00 +18°C° 0 mm 3 mps 742 mmHg 54%
    12:00 +19°C° 0 mm 3 mps 741 mmHg 51%
    13:00 +20°C° 0 mm 3 mps 741 mmHg 48%
    14:00 +19°C° 0 mm 3 mps 740 mmHg 52%
    15:00 +18°C° 0 mm 2 mps 740 mmHg 57%
    16:00 +17°C° 0 mm 2 mps 739 mmHg 61%
    17:00 +15°C° 0.8 mm 4 mps 740 mmHg 65%
    18:00 +14°C° 0.8 mm 5 mps 741 mmHg 69%
    19:00 +12°C° 0.8 mm 7 mps 742 mmHg 72%
    20:00 +11°C° 0.4 mm 6 mps 742 mmHg 71%
    21:00 +12°C° 0.4 mm 5 mps 743 mmHg 70%
    22:00 +11°C° 0.4 mm 4 mps 744 mmHg 69%
    23:00 +10°C° 0 mm 4 mps 744 mmHg 71%
    Show more